[[{"header":{"parameterUnit":"m.s-1","parameterCategory":1,"la1":30.2991,"la2":30.254,"lo1":-89.0895,"lo2":-89.0444,"dy":0.0017,"dx":0.0017,"nx":28,"ny":28,"refTime":"2023-04-17T15:00:00:Z","depth":0,"parameterNumber":2,"parameterNumberName":"U-component_of_WINDS"},"data":[0,0,0,0,0,0,0,0,0,0,0,0,0,0,0,0,0,0,0,0,0,0,0,0,0,0,0,0,0,0,0,0,0,0,0,0,0,0,0,0,0,0,0,0,0,0,0,0,0,0,0,0,0,0,0,0,0,0,-1.8472,-1.8472,0,-1.8457,-1.8457,-1.8457,-1.8423,-1.8423,-1.8422,-1.8421,-1.8406,-1.8407,-1.8407,0,0,0,0,0,0,0,0,0,0,0,0,0,-1.8472,-1.8472,-1.8472,-1.8472,-1.8472,-1.8458,-1.8457,-1.8457,-1.8423,-1.8423,-1.8422,-1.8421,-1.8406,-1.8407,-1.8407,0,0,0,0,0,0,0,0,0,0,0,0,0,-1.8466,-1.8472,-1.8472,-1.8453,-1.8451,-1.8458,-1.8457,-1.8457,-1.8424,-1.8423,-1.8422,-1.8421,-1.8406,-1.8407,-1.8407,-1.843,0,0,-1.8408,-1.8408,0,0,0,0,0,0,0,0,-1.8467,-1.8466,-1.8456,-1.8454,-1.8452,-1.8441,-1.8452,-1.8448,-1.8424,-1.8434,-1.8421,-1.842,-1.8419,-1.8418,-1.8418,-1.8429,-1.8429,-1.8408,-1.8408,-1.8408,-1.8409,0,0,0,0,0,0,0,-1.8467,-1.8467,-1.8466,-1.8456,-1.8454,-1.8446,-1.8444,-1.8451,-1.8433,-1.8433,-1.8431,-1.8429,-1.8418,-1.8417,-1.8417,-1.8429,-1.8408,-1.8408,-1.8409,-1.8409,-1.8461,-1.8462,0,0,0,0,0,0,-1.847,-1.8467,-1.8467,-1.8466,-1.8457,-1.8447,-1.8445,-1.8446,-1.8432,-1.8429,-1.843,-1.8428,-1.8417,-1.8417,-1.8416,-1.8443,-1.8408,-1.8409,-1.8409,-1.8459,-1.8461,-1.8462,0,0,0,0,0,0,-1.847,-1.847,-1.8467,-1.8466,-1.8465,-1.8448,-1.845,-1.8446,-1.8446,-1.843,-1.8427,-1.8433,-1.8416,-1.8416,-1.8427,-1.8442,-1.8409,-1.8409,-1.8458,-1.846,-1.8461,-1.8497,0,0,0,0,0,0,-1.847,-1.8471,-1.8479,-1.8466,-1.8465,-1.8478,-1.8451,-1.8447,-1.8447,-1.8443,-1.8432,-1.8429,-1.8415,-1.8427,-1.8428,-1.8442,-1.841,-1.8457,-1.8459,-1.8461,-1.8494,-1.85,-1.8504,0,0,0,0,0,-1.8471,-1.8489,-1.8479,-1.8479,-1.8475,-1.8479,-1.8478,-1.8462,-1.8448,-1.8456,-1.8447,-1.843,-1.8441,-1.8428,-1.8429,-1.8444,-1.8456,-1.8458,-1.8461,-1.8492,-1.8499,-1.8504,0,0,0,0,0,0,-1.8503,-1.8487,-1.8476,-1.8491,-1.8487,-1.8473,-1.8483,-1.8469,-1.8469,-1.8466,-1.8446,-1.8443,-1.8458,-1.8452,-1.8439,-1.8466,-1.8446,-1.8448,-1.8469,-1.8475,-1.848,-1.8481,-1.841,0,0,0,0,0,-1.8512,-1.8516,-1.8502,-1.8517,-1.8515,-1.85,-1.8501,-1.8489,-1.8484,-1.8482,-1.8473,-1.8469,-1.8471,-1.8473,-1.8475,-1.8494,-1.8491,-1.8505,-1.851,-1.8514,-1.8516,-1.8527,-1.8533,-1.8471,-1.8471,-1.8471,0,0,-1.853,-1.8522,-1.8526,-1.8523,-1.8518,-1.8524,-1.8498,-1.8505,-1.8509,-1.8483,-1.8493,-1.8487,-1.8481,-1.8497,-1.8503,-1.8492,-1.8533,-1.8517,-1.8521,-1.852,-1.853,-1.8536,-1.8541,-1.8472,-1.8472,-1.8472,0,0,-1.8566,-1.8561,-1.8572,-1.8569,-1.8562,-1.8552,-1.8555,-1.8544,-1.8539,-1.855,-1.8531,-1.8536,-1.854,-1.8537,-1.8536,-1.8574,-1.8559,-1.8575,-1.86,-1.8611,-1.8616,-1.862,-1.8634,-1.8639,-1.8578,-1.8578,-1.8578,0,-1.859,-1.8597,-1.858,-1.8588,-1.8588,-1.8566,-1.8578,-1.8575,-1.857,-1.857,-1.8559,-1.8565,-1.856,-1.8575,-1.8584,-1.8584,-1.8588,-1.8575,-1.8617,-1.8621,-1.8625,-1.8637,-1.8642,-1.858,-1.858,-1.858,-1.8579,0,-1.8626,-1.8632,-1.8642,-1.8638,-1.8639,-1.8649,-1.8635,-1.8638,-1.8627,-1.8619,-1.863,-1.8623,-1.8624,-1.8627,-1.8616,-1.8641,-1.8635,-1.862,-1.8599,-1.8633,-1.8644,-1.8649,-1.8583,-1.8582,-1.8582,-1.8581,0,0,-1.868,-1.8668,-1.8672,-1.867,-1.8663,-1.8667,-1.8677,-1.8677,-1.8681,-1.8679,-1.8687,-1.8693,-1.868,-1.8679,-1.8668,-1.8677,-1.8709,-1.8662,-1.8662,-1.8671,-1.8737,-1.8747,-1.8753,-1.8699,-1.87,-1.8701,-1.8737,0,-1.8713,-1.8729,-1.8715,-1.8734,-1.8739,-1.872,-1.8729,-1.8725,-1.8719,-1.8723,-1.8715,-1.872,-1.8702,-1.8702,-1.8711,-1.8703,-1.8721,-1.87,-1.8706,-1.8707,-1.8707,-1.8759,-1.8769,-1.8804,-1.8742,-1.8742,-1.8743,0,-1.8753,-1.8754,-1.8773,-1.8766,-1.8767,-1.8775,-1.8776,-1.878,-1.8777,-1.8771,-1.8771,-1.8758,-1.8769,-1.8749,-1.8763,-1.8749,-1.8751,-1.8748,-1.8749,-1.8748,-1.8726,-1.8759,-1.8814,-1.8819,-1.875,-1.8749,-1.8749,0,-1.8791,-1.8796,-1.8808,-1.8807,-1.8799,-1.8806,-1.8803,-1.8798,-1.88,-1.8801,-1.8802,-1.8804,-1.8805,-1.8807,-1.8795,-1.8782,-1.8812,-1.8791,-1.8807,-1.8808,-1.8813,-1.8813,-1.8869,-1.8816,-1.8816,-1.8816,-1.8816,0,-1.8829,-1.8841,-1.8825,-1.8832,-1.8846,-1.8832,-1.8846,-1.8841,-1.8838,-1.8845,-1.8828,-1.8835,-1.8819,-1.8825,-1.8816,-1.883,-1.883,-1.8826,-1.8824,-1.8827,-1.8828,-1.8828,-1.8825,-1.8817,-1.8817,-1.8817,-1.8817,0,-1.8872,-1.8861,-1.8873,-1.8865,-1.8864,-1.8874,-1.8867,-1.8875,-1.8868,-1.8877,-1.8878,-1.8867,-1.8873,-1.8862,-1.8866,-1.886,-1.8879,-1.8873,-1.888,-1.8878,-1.8895,-1.8894,-1.8953,-1.896,-1.8903,-1.8904,-1.8904,0,-1.8896,-1.8905,-1.8899,-1.8902,-1.89,-1.8906,-1.8908,-1.8895,-1.8898,-1.8896,-1.8904,-1.8908,-1.8911,-1.8922,-1.8915,-1.8918,-1.8912,-1.8933,-1.8912,-1.8916,-1.8912,-1.8911,-1.8912,-1.8936,-1.8937,-1.8937,-1.8938,0,-1.8941,-1.8936,-1.8939,-1.8942,-1.8945,-1.8946,-1.8946,-1.895,-1.8936,-1.8941,-1.8947,-1.8949,-1.8954,-1.8959,-1.8962,-1.8959,-1.8947,-1.8945,-1.8949,-1.8952,-1.8956,-1.8954,-1.8891,-1.8943,-1.8942,-1.8942,-1.8942,-1.8942,-1.8975,-1.8983,-1.898,-1.8984,-1.8983,-1.8984,-1.8991,-1.8985,-1.899,-1.8993,-1.8986,-1.8994,-1.8992,-1.8994,-1.8993,-1.9,-1.8991,-1.8997,-1.8998,-1.9,-1.9002,-1.8956,-1.9001,-1.9,-1.9,-1.9,-1.9,0,-1.9019,-1.9016,-1.9021,-1.9022,-1.9026,-1.9015,-1.9015,-1.9019,-1.9027,-1.9026,-1.903,-1.9038,-1.9043,-1.9037,-1.9042,-1.9048,-1.9043,-1.905,-1.9049,-1.9049,-1.901,-1.9006,-1.9054,-1.9054,-1.9054,-1.9054,-1.9054,-1.9054,-1.9042,-1.9054,-1.9049,-1.9062,-1.906,-1.9067,-1.9068,-1.907,-1.9069,-1.9079,-1.9083,-1.908,-1.9077,-1.9082,-1.9087,-1.9085,-1.9087,-1.9097,-1.9093,-1.9057,-1.9051,-1.9046,-1.9042,-1.9097,-1.9097,-1.9131,-1.9131,-1.9131]},{"header":{"parameterUnit":"m.s-1","parameterCategory":1,"la1":30.2991,"la2":30.254,"lo1":-89.0895,"lo2":-89.0444,"dy":0.0017,"dx":0.0017,"nx":28,"ny":28,"refTime":"2023-04-17T15:00:00:Z","depth":0,"parameterNumber":3,"parameterNumberName":"V-component_of_WINDS"},"data":[0,0,0,0,0,0,0,0,0,0,0,0,0,0,0,0,0,0,0,0,0,0,0,0,0,0,0,0,0,0,0,0,0,0,0,0,0,0,0,0,0,0,0,0,0,0,0,0,0,0,0,0,0,0,0,0,0,0,3.9926,3.9925,0,3.9901,3.9901,3.9901,3.99,3.99,3.99,3.9901,3.9871,3.987,3.9869,0,0,0,0,0,0,0,0,0,0,0,0,0,3.9968,3.9967,3.9926,3.9925,3.9925,3.9901,3.9901,3.9901,3.99,3.99,3.99,3.9901,3.9871,3.987,3.9869,0,0,0,0,0,0,0,0,0,0,0,0,0,3.9947,3.9967,3.9926,3.9922,3.9921,3.9901,3.9901,3.99,3.99,3.99,3.99,3.9901,3.9872,3.987,3.9869,3.9849,0,0,3.9864,3.9863,0,0,0,0,0,0,0,0,3.9948,3.9946,3.9923,3.9922,3.9921,3.9904,3.9905,3.9883,3.9899,3.9908,3.9901,3.9901,3.9881,3.9879,3.9873,3.9848,3.9847,3.9863,3.9862,3.9862,3.9861,0,0,0,0,0,0,0,3.995,3.9947,3.9916,3.9922,3.9922,3.992,3.9918,3.9901,3.9892,3.9907,3.9907,3.9904,3.9881,3.9875,3.9872,3.9846,3.9863,3.9862,3.9861,3.986,3.9805,3.9804,0,0,0,0,0,0,3.9953,3.9948,3.9917,3.9915,3.9937,3.9919,3.9916,3.9909,3.9892,3.989,3.9904,3.9904,3.9877,3.9874,3.9871,3.9848,3.9862,3.986,3.9859,3.9805,3.9805,3.9804,0,0,0,0,0,0,3.9954,3.995,3.9918,3.9932,3.9927,3.9918,3.991,3.9908,3.9902,3.989,3.9888,3.9899,3.9877,3.9874,3.9855,3.9847,3.986,3.9858,3.9806,3.9805,3.9804,3.9802,0,0,0,0,0,0,3.9955,3.995,3.9944,3.9931,3.9927,3.9903,3.9909,3.9908,3.99,3.99,3.9885,3.9883,3.9878,3.9858,3.9854,3.9845,3.9857,3.9806,3.9805,3.9805,3.9803,3.9801,3.98,0,0,0,0,0,3.9956,3.9943,3.9943,3.994,3.9918,3.9903,3.99,3.9895,3.9899,3.9892,3.9884,3.9884,3.9849,3.9856,3.9851,3.9842,3.9807,3.9806,3.9805,3.9803,3.9802,3.98,0,0,0,0,0,0,3.9953,3.9941,3.9942,3.9924,3.9915,3.9903,3.9893,3.9893,3.9881,3.9882,3.9875,3.9871,3.9853,3.9846,3.9854,3.9823,3.9828,3.9826,3.9829,3.9827,3.9826,3.9828,3.9855,0,0,0,0,0,3.995,3.994,3.9929,3.9915,3.991,3.9903,3.9896,3.9893,3.9882,3.9878,3.9869,3.9857,3.9844,3.9835,3.9822,3.9802,3.9798,3.9793,3.9792,3.9791,3.9789,3.9778,3.9776,3.98,3.98,3.98,0,0,3.9944,3.9936,3.993,3.9914,3.9906,3.9895,3.9899,3.9886,3.9877,3.9875,3.9858,3.9851,3.9838,3.9819,3.981,3.9812,3.9782,3.9789,3.9789,3.9787,3.9777,3.9775,3.9772,3.9799,3.98,3.98,0,0,3.9927,3.9921,3.9908,3.9901,3.989,3.9885,3.9882,3.987,3.9866,3.9849,3.9848,3.9836,3.9813,3.9804,3.9796,3.9777,3.9776,3.9773,3.9765,3.9755,3.9753,3.9751,3.9745,3.9743,3.9771,3.9771,3.9771,0,3.9921,3.9904,3.9901,3.9889,3.9882,3.9881,3.9868,3.9861,3.9845,3.984,3.9843,3.9815,3.9806,3.9785,3.9781,3.9774,3.977,3.9774,3.9754,3.9752,3.975,3.9744,3.9742,3.9771,3.9771,3.9771,3.9771,0,3.9897,3.9886,3.9877,3.9864,3.9856,3.9843,3.9837,3.9829,3.9827,3.9822,3.9805,3.9794,3.9779,3.9774,3.9771,3.9752,3.9754,3.9756,3.9761,3.9748,3.9742,3.9739,3.977,3.9771,3.9771,3.9771,0,0,3.9877,3.9864,3.986,3.9855,3.9843,3.9834,3.9821,3.9808,3.9801,3.979,3.9779,3.976,3.9762,3.9753,3.975,3.974,3.9727,3.9743,3.9743,3.9741,3.9706,3.9705,3.9702,3.9726,3.9725,3.9725,3.9707,0,3.9859,3.9838,3.9835,3.9816,3.9805,3.9805,3.9793,3.9784,3.9779,3.9768,3.9762,3.9749,3.9752,3.9747,3.9738,3.973,3.9719,3.9731,3.9714,3.9714,3.9718,3.9699,3.9698,3.9682,3.9705,3.9704,3.9704,0,3.9835,3.9826,3.9806,3.9797,3.9792,3.9783,3.9771,3.9761,3.9751,3.9747,3.9739,3.9736,3.9722,3.9728,3.9708,3.9716,3.9709,3.9704,3.9703,3.9701,3.9708,3.9697,3.9676,3.9674,3.97,3.97,3.9701,0,3.9823,3.9805,3.9792,3.9787,3.9775,3.9769,3.9763,3.9754,3.9746,3.9736,3.9731,3.9718,3.9711,3.97,3.9694,3.9699,3.9675,3.968,3.9671,3.9671,3.9666,3.9666,3.9644,3.9661,3.9661,3.9661,3.9661,0,3.9803,3.9791,3.9786,3.9778,3.9764,3.9761,3.9747,3.9741,3.9733,3.9723,3.9721,3.9711,3.9703,3.9692,3.9687,3.9672,3.9668,3.9665,3.9663,3.9665,3.9665,3.966,3.9661,3.966,3.9661,3.9661,3.9661,0,3.9787,3.9783,3.9768,3.976,3.9757,3.9747,3.9739,3.973,3.9725,3.9712,3.9709,3.9701,3.9688,3.9681,3.9664,3.9661,3.9643,3.9642,3.9647,3.9647,3.9638,3.9639,3.9612,3.9608,3.9628,3.9627,3.9627,0,3.9775,3.9766,3.9757,3.9751,3.9746,3.9736,3.9729,3.9725,3.9717,3.9706,3.9698,3.9685,3.9675,3.9654,3.9645,3.9633,3.9632,3.9623,3.9629,3.9632,3.9632,3.9633,3.9632,3.9622,3.9621,3.9621,3.9621,0,3.9755,3.9753,3.9744,3.9735,3.9727,3.9719,3.9711,3.9705,3.97,3.9691,3.9679,3.9671,3.9655,3.9642,3.9629,3.9622,3.962,3.9619,3.9617,3.9618,3.9621,3.962,3.9644,3.962,3.962,3.962,3.962,3.962,3.974,3.9733,3.9725,3.9715,3.9709,3.9702,3.9694,3.9688,3.9679,3.9666,3.9664,3.9651,3.9641,3.9623,3.9616,3.9605,3.9606,3.9602,3.9601,3.96,3.96,3.9623,3.9602,3.9602,3.9602,3.9602,3.9602,0,3.972,3.9715,3.9706,3.9696,3.9688,3.9689,3.968,3.9673,3.9662,3.9654,3.9644,3.963,3.9618,3.9609,3.9596,3.9589,3.9588,3.9586,3.9586,3.9585,3.9599,3.9603,3.9587,3.9587,3.9587,3.9587,3.9587,3.9587,3.9708,3.9696,3.9694,3.9678,3.9673,3.9661,3.9656,3.9649,3.9643,3.9628,3.9618,3.9613,3.9604,3.9591,3.958,3.9577,3.9573,3.9571,3.9568,3.9582,3.9584,3.9585,3.9589,3.957,3.957,3.9555,3.9555,3.9554]}]]